CW8429 Weather Reports


time (UTC)temp
F
wind
direction
speed
knots
gust
knots
rain 1hr
in
rain 24hr
in
rain mn
in
humidity
%
barometer
mb
20260903074619 58 205 0.0 0.0 0.00 0.00 0.00 46 1014.0
20260903073649 58 205 0.0 0.0 0.00 0.00 0.00 46 1014.0
20260903072623 58 205 0.0 0.0 0.00 0.00 0.00 48 1014.0
20260903071612 58 205 0.0 2.6 0.00 0.00 0.00 45 1013.9
20260903070622 58 323 1.7 3.5 0.00 0.00 0.00 44 1013.9
20260903065623 57 251 0.0 0.0 0.00 0.00 0.00 42 1014.0
20260903064618 57 294 0.0 1.7 0.00 0.00 0.00 43 1014.1
20260903063628 58 294 1.7 2.6 0.00 0.00 0.00 45 1013.9
20260903062617 58 12 0.0 0.0 0.00 0.00 0.00 46 1013.8
20260903061612 58 12 0.9 3.5 0.00 0.00 0.00 45 1013.8
20260903060631 57 344 0.0 0.0 0.00 0.00 0.00 47 1013.7
20260903055631 57 344 0.0 0.0 0.00 0.00 0.00 47 1013.7
20260903054622 58 344 0.0 0.0 0.00 0.00 0.00 47 1013.6
20260903053613 59 344 0.0 2.6 0.00 0.00 0.00 47 1013.6
20260903052628 61 355 0.9 2.6 0.00 0.00 0.00 41 1013.5
20260903051617 61 63 0.0 8.7 0.00 0.00 0.00 34 1013.5
20260903050628 62 91 5.2 7.0 0.00 0.00 0.00 33 1013.4
20260903045613 61 115 5.2 7.0 0.00 0.00 0.00 33 1013.4
20260903044644 60 124 4.3 7.8 0.00 0.00 0.00 35 1013.4
20260903043614 60 126 6.1 7.8 0.00 0.00 0.00 37 1013.5
20260903042623 60 117 4.3 7.0 0.00 0.00 0.00 37 1013.5
20260903041618 60 119 4.3 7.0 0.00 0.00 0.00 37 1013.6
20260903040630 60 119 5.2 7.0 0.00 0.00 0.00 36 1013.4
20260903035631 60 121 6.1 7.8 0.00 0.00 0.00 36 1013.5
20260903034642 60 120 4.3 7.0 0.00 0.00 0.00 36 1013.4
20260903033613 61 117 5.2 8.7 0.00 0.00 0.00 35 1013.2
20260903032628 61 115 5.2 8.7 0.00 0.00 0.00 34 1013.3
20260903031619 61 115 6.1 7.8 0.00 0.00 0.00 34 1013.1
20260903030631 62 121 6.1 7.8 0.00 0.00 0.00 34 1013.0
20260903025617 63 125 5.2 7.0 0.00 0.00 0.00 34 1013.0
20260903024628 64 131 4.3 6.1 0.00 0.00 0.00 33 1012.8
20260903023620 64 116 4.3 6.1 0.00 0.00 0.00 34 1012.8
20260903022631 65 129 3.5 6.1 0.00 0.00 0.00 34 1012.8
20260903021626 65 118 3.5 6.1 0.00 0.00 0.00 34 1012.8
20260903020618 66 126 3.5 6.1 0.00 0.00 0.00 33 1012.8
20260903015621 68 142 0.9 1.7 0.00 0.00 0.00 31 1013.0
20260903014631 68 142 0.0 0.0 0.00 0.00 0.00 30 1012.9
20260903013626 69 142 0.0 2.6 0.00 0.00 0.00 30 1013.0
20260903012616 69 142 1.7 2.6 0.00 0.00 0.00 30 1013.0
20260903011626 69 141 1.7 3.5 0.00 0.00 0.00 29 1013.1
20260903010637 70 310 0.0 1.7 0.00 0.00 0.00 30 1013.2
20260903005622 70 310 0.0 5.2 0.00 0.00 0.00 31 1013.2
20260903004632 70 223 0.9 2.6 0.00 0.00 0.00 31 1013.3
20260903003620 71 219 0.0 2.6 0.00 0.00 0.00 32 1013.2
20260903002651 71 279 0.0 2.6 0.00 0.00 0.00 32 1013.2
20260903001624 72 286 1.7 6.1 0.00 0.00 0.00 30 1013.2
20260903000617 73 275 3.5 7.0 0.00 0.00 0.00 29 1013.2
20260902235620 74 101 2.6 6.1 0.00 0.00 0.00 27 1013.2
20260902234631 74 157 4.3 9.6 0.00 0.00 0.00 26 1013.2
20260902233626 74 171 2.6 10.4 0.00 0.00 0.00 26 1013.1
20260902232617 74 173 5.2 9.6 0.00 0.00 0.00 26 1013.2
20260902231649 75 165 6.1 10.4 0.00 0.00 0.00 27 1013.2
20260902230620 75 213 2.6 8.7 0.00 0.00 0.00 27 1013.0
20260902225627 75 71 5.2 12.2 0.00 0.00 0.00 27 1013.0
20260902224618 74 186 2.6 8.7 0.00 0.00 0.00 28 1013.0
20260902223631 75 98 5.2 13.9 0.00 0.00 0.00 28 1013.0
20260902222622 75 127 7.0 13.9 0.00 0.00 0.00 26 1013.2
20260902221617 75 105 4.3 12.2 0.00 0.00 0.00 26 1013.2
20260902220628 75 45 5.2 13.9 0.00 0.00 0.00 27 1013.2
20260902215630 75 320 7.0 14.8 0.00 0.00 0.00 27 1013.2
20260902214621 75 147 6.1 15.6 0.00 0.00 0.00 28 1013.1
20260902213616 75 270 6.1 12.2 0.00 0.00 0.00 29 1013.1
20260902212629 76 128 4.3 9.6 0.00 0.00 0.00 28 1013.2
20260902211620 75 302 5.2 12.2 0.00 0.00 0.00 28 1013.2
20260902210615 75 155 5.2 10.4 0.00 0.00 0.00 29 1013.2
20260902205618 75 167 6.1 10.4 0.00 0.00 0.00 30 1013.4
20260902204629 75 149 6.1 13.9 0.00 0.00 0.00 30 1013.4
20260902203619 75 153 7.0 15.6 0.00 0.00 0.00 28 1013.4
20260902202613 74 167 3.5 7.8 0.00 0.00 0.00 31 1013.3
20260902201624 75 153 2.6 13.9 0.00 0.00 0.00 29 1013.6
20260902200646 73 130 5.2 11.3 0.00 0.00 0.00 31 1013.6
20260902195620 74 221 6.1 12.2 0.00 0.00 0.00 31 1013.7
20260902194624 75 176 7.0 11.3 0.00 0.00 0.00 31 1013.7
20260902193614 75 150 9.6 15.6 0.00 0.00 0.00 28 1013.9
20260902192623 74 148 6.1 19.1 0.00 0.00 0.00 31 1014.0
20260902191653 74 136 7.8 12.2 0.00 0.00 0.00 28 1014.1
20260902190625 74 144 5.2 15.6 0.00 0.00 0.00 27 1014.0
20260902185626 74 151 5.2 12.2 0.00 0.00 0.00 29 1014.2
20260902184620 73 27 5.2 12.2 0.00 0.00 0.00 30 1014.3
20260902183630 74 255 6.1 16.5 0.00 0.00 0.00 28 1014.5
20260902182639 74 123 7.0 20.0 0.00 0.00 0.00 27 1014.5
20260902181651 74 144 7.0 16.5 0.00 0.00 0.00 27 1014.5
20260902180625 73 159 7.8 18.2 0.00 0.00 0.00 28 1014.7
20260902175626 73 190 4.3 12.2 0.00 0.00 0.00 29 1014.7
20260902174615 73 95 5.2 21.7 0.00 0.00 0.00 29 1014.9
20260902173625 73 143 7.0 15.6 0.00 0.00 0.00 29 1014.9
20260902172618 73 112 4.3 8.7 0.00 0.00 0.00 30 1014.9
20260902171629 71 83 6.1 20.9 0.00 0.00 0.00 30 1015.1
20260902170620 70 42 2.6 12.2 0.00 0.00 0.00 30 1015.0
20260902165621 72 176 5.2 10.4 0.00 0.00 0.00 30 1014.9
20260902164615 72 204 7.0 13.9 0.00 0.00 0.00 30 1015.0
20260902163645 71 250 6.1 12.2 0.00 0.00 0.00 31 1014.9
20260902162615 70 130 8.7 22.6 0.00 0.00 0.00 31 1014.8
20260902161620 69 95 7.8 16.5 0.00 0.00 0.00 34 1014.7
20260902160633 68 167 12.2 19.1 0.00 0.00 0.00 34 1014.6
20260902155613 68 84 7.0 10.4 0.00 0.00 0.00 43 1014.6
20260902154623 69 135 7.8 16.5 0.00 0.00 0.00 42 1014.6
20260902153612 69 147 8.7 18.2 0.00 0.00 0.00 40 1014.6
20260902152626 68 178 7.0 13.0 0.00 0.00 0.00 43 1014.7
20260902151613 67 119 7.8 11.3 0.00 0.00 0.00 45 1014.8
20260902150623 66 136 7.8 11.3 0.00 0.00 0.00 46 1014.7
20260902145626 65 117 7.8 12.2 0.00 0.00 0.00 48 1014.7
20260902144620 65 163 6.1 13.0 0.00 0.00 0.00 50 1014.8
20260902143632 64 132 6.1 10.4 0.00 0.00 0.00 51 1014.7
20260902142623 60 103 7.8 12.2 0.00 0.00 0.00 59 1014.6
20260902141614 56 309 0.9 3.5 0.00 0.00 0.00 69 1014.7
20260902140631 56 178 4.3 7.8 0.00 0.00 0.00 68 1014.7
20260902135614 52 276 0.0 1.7 0.00 0.00 0.00 75 1014.8
20260902134625 52 275 0.9 7.0 0.00 0.00 0.00 75 1014.8
20260902133620 53 263 2.6 8.7 0.00 0.00 0.00 75 1014.9
20260902132627 52 69 0.0 2.6 0.00 0.00 0.00 77 1014.9
20260902131613 52 68 0.0 5.2 0.00 0.00 0.00 77 1014.9
20260902130636 51 250 0.0 0.0 0.00 0.00 0.00 79 1014.9
20260902125639 51 250 0.0 0.0 0.00 0.00 0.00 78 1014.8
20260902124614 51 250 0.0 0.0 0.00 0.00 0.00 79 1014.6
20260902123621 51 247 0.9 3.5 0.00 0.00 0.00 78 1014.6
20260902122650 52 230 0.9 4.3 0.00 0.00 0.00 77 1014.7
20260902121629 52 194 0.0 1.7 0.00 0.00 0.00 77 1014.7
20260902120618 52 196 0.9 3.5 0.00 0.00 0.00 75 1014.8
20260902115626 53 196 0.0 0.0 0.00 0.00 0.00 76 1014.9
20260902114617 53 196 0.0 0.0 0.00 0.00 0.00 76 1014.9
20260902113628 53 196 0.0 0.0 0.00 0.00 0.00 75 1014.9
20260902112623 54 169 0.0 0.0 0.00 0.00 0.00 74 1015.0
20260902111636 55 169 0.0 0.0 0.00 0.00 0.00 72 1015.1
20260902110626 55 166 0.0 0.0 0.00 0.00 0.00 72 1015.1
20260902105650 54 165 0.0 0.0 0.00 0.00 0.00 73 1015.1
20260902104620 55 167 0.0 0.0 0.00 0.00 0.00 73 1015.1
20260902103614 56 167 0.0 0.0 0.00 0.00 0.00 70 1015.1
20260902102624 57 116 0.0 0.0 0.00 0.00 0.00 69 1015.1
20260902101614 57 116 0.0 3.5 0.00 0.00 0.00 68 1015.1
20260902100629 57 116 3.5 6.1 0.00 0.00 0.00 68 1015.2
20260902095630 58 172 0.0 2.6 0.00 0.00 0.00 66 1015.3
20260902094620 60 172 0.0 4.3 0.00 0.00 0.00 62 1015.3
20260902093631 60 169 4.3 6.1 0.00 0.00 0.00 62 1015.2
20260902092625 60 184 3.5 7.8 0.00 0.00 0.00 61 1015.2
20260902091635 61 159 4.3 10.4 0.00 0.00 0.00 61 1015.1
20260902090623 60 126 6.1 13.0 0.00 0.00 0.00 62 1015.1
20260902085646 59 192 6.1 8.7 0.00 0.00 0.00 65 1015.2
20260902084616 56 111 3.5 7.8 0.00 0.00 0.00 72 1015.1
20260902083628 56 215 0.0 0.0 0.00 0.00 0.00 74 1015.2
20260902082616 55 215 0.0 0.0 0.00 0.00 0.00 75 1015.2
20260902081627 55 215 0.0 0.0 0.00 0.00 0.00 75 1015.2
20260902080637 56 215 0.0 0.0 0.00 0.00 0.00 74 1015.1
20260902075621 56 215 0.0 0.0 0.00 0.00 0.00 73 1015.1